Flag for Japan Weather past 2 weeks in Yokosuka, Japan

Now
63 °F

Sunny.


Feels Like: 63 °F
Forecast: 57 / 66 °F
Wind: 10 mph from South

Location: Tokyo International Airport

Current Time: Mar 30, 2015 at 12:12:20 PM

Latest Report: Mar 30, 2015 at 11:30 AM


Visibility: 10 mi

Pressure: 30.04 "Hg

Humidity: 52%

Dew point: 45 °F

Location of YokosukaLocation

Historic Weather in Yokosuka — Graph

°F

Yokosuka temperature yesterday

Maximum temperature yesterday: 68 °F (at 10:30 AM)
Minimum temperature yesterday: 54 °F (at 3:30 AM)
Average temperature yesterday: 59 °F

Past Weeks' High & Low Weather Summary

 TemperatureHumidityPressure
High68 °F (Mar 17, 2:00 PM)100% (Mar 16, 8:00 PM)30.45 "Hg (Mar 16, 8:00 PM)
Low39 °F (Mar 24, 4:30 AM)17% (Mar 24, 2:00 PM)29.65 "Hg (Mar 19, 2:00 PM)
Average53 °F63%30.05 "Hg
* Reported Mar 15 10:00 AM — Mar 30 10:30 AM, Yokosuka, Weather by CustomWeather, © 2015

Note: Actual official high and low records may vary slightly from our data, if they occured in-between our weather recording intervals... More about our weather records

Advertising

Yokosuka weather history for previous 24 hours

 ConditionsComfort  
Time TempWeatherWind HumidityBarometerVisibility
10:30 AM
Mon, Mar 30
61 °FSunny.7 mph55%30.07 "Hg10 mi
10:00 AM61 °FSunny.8 mph63%30.07 "Hg10 mi
9:30 AM59 °FSunny.7 mph72%30.07 "Hg10 mi
9:00 AM59 °FPassing clouds.5 mph63%30.04 "HgN/A
8:30 AM59 °FSunny.9 mph51%30.04 "Hg10 mi
8:00 AM57 °FSunny.2 mph67%30.04 "Hg10 mi
7:30 AM57 °FSunny.2 mph72%30.04 "Hg10 mi
7:00 AM55 °FSunny.3 mph77%30.01 "Hg10 mi
6:30 AM55 °FPassing clouds.3 mph77%30.01 "HgN/A
6:00 AM54 °FPassing clouds.5 mph82%30.01 "HgN/A
5:30 AM54 °FPassing clouds.6 mph82%30.01 "HgN/A
5:00 AM54 °FPassing clouds.6 mph82%29.98 "HgN/A
4:30 AM54 °FClear.6 mph82%29.95 "Hg10 mi
4:00 AM55 °FClear.6 mph77%29.95 "Hg10 mi
3:30 AM52 °FClear.7 mph77%29.95 "Hg10 mi
3:00 AM54 °FPassing clouds.5 mph72%29.92 "HgN/A
2:30 AM55 °FPassing clouds.8 mph72%29.92 "HgN/A
2:00 AM55 °FPassing clouds.9 mph77%29.92 "HgN/A
1:30 AM55 °FPassing clouds.9 mph77%29.92 "HgN/A
1:00 AM57 °FPassing clouds.10 mph77%29.92 "HgN/A
12:30 AM57 °FPassing clouds.7 mph67%29.92 "HgN/A
12:00 AM57 °FPassing clouds.2 mph72%29.89 "HgN/A
11:30 PM
Sun, Mar 29
57 °FPassing clouds.5 mph77%29.89 "HgN/A
11:00 PM55 °FPassing clouds.6 mph82%29.89 "HgN/A
10:30 PM55 °FPassing clouds.5 mph82%29.89 "HgN/A
10:00 PM55 °FPassing clouds.6 mph82%29.89 "HgN/A
9:30 PM57 °FPassing clouds.3 mph77%29.89 "HgN/A
9:00 PM57 °FPartly cloudy.7 mph82%29.89 "HgN/A
8:30 PM57 °FPartly cloudy.13 mph82%29.89 "HgN/A
8:00 PM57 °FLight rain. Partly cloudy.13 mph82%29.86 "HgN/A
7:30 PM55 °FLight rain. Mostly cloudy.26 mph88%29.83 "HgN/A
7:00 PM57 °FLight rain. Partly cloudy.17 mph82%29.86 "HgN/A
6:30 PM59 °FLight rain. Passing clouds.15 mph77%29.86 "HgN/A
6:00 PM59 °FLight rain. Passing clouds.12 mph77%29.89 "HgN/A
5:30 PM59 °FLight rain. Broken clouds.16 mph77%29.89 "HgN/A
5:00 PM59 °FLight rain. Partly sunny.14 mph72%29.86 "HgN/A
4:30 PM59 °FLight rain. Partly sunny.14 mph77%29.86 "HgN/A
4:00 PM59 °FLight rain. Partly sunny.20 mph82%29.89 "HgN/A
3:30 PM61 °FLight rain. Partly sunny.21 mph72%29.89 "HgN/A
3:00 PM64 °FLight rain. Partly sunny.15 mph60%29.89 "HgN/A
2:30 PM64 °FLight rain. Partly sunny.22 mph60%29.86 "HgN/A
2:00 PM66 °FPartly sunny.18 mph60%29.86 "HgN/A
1:30 PM66 °FPartly sunny.21 mph60%29.89 "HgN/A
1:00 PM64 °FPartly sunny.25 mph60%29.92 "HgN/A
12:30 PM64 °FBroken clouds.21 mph64%29.92 "HgN/A
12:00 PM66 °FBroken clouds.21 mph52%29.92 "HgN/A
Weather by CustomWeather, © 2015

See weather overviewHow to use our weather pages